User: anonymous
Location: Sewell
(39.7660°N, 75.1450°W)
Time: 10:36:34
(UTC-04:00)
Language:

ISS - Orbit

View from above orbital plane
View from above orbital plane
View from above satellite
View from above satellite

Ground track
Ground track

The orbit data is extracted from the following two-line orbital elements,

1 25544U 98067A   14232.30434177  .00007723  00000-0  14261-3 0  9278
2 25544 051.6465 141.7676 0004454 043.1487 051.1414 15.50110373901276
Epoch (UTC): 20 August 2014 07:18:15
Eccentricity: 0.0004454
inclination: 51.6465°
perigee height: 413 km
apogee height: 419 km
right ascension of ascending node: 141.7676°
argument of perigee: 43.1487°
revolutions per day: 15.50110373
mean anomaly at epoch: 51.1414°
orbit number at epoch: 90127

The dashed part of the orbit path shows where the satellite is in the earth's shadow,  

DLR